KLM342 EGKK-EGPH

Flight info

Callsign KLM342
Flight time 1h 1m
Altitude 36000
Route LAM L10 BPK UN601 RIBEL DCT INPIP
Aircraft B738/M-SDE2E3FGHIR/S

Departure

Time 2026-04-23 08:24
Airport London Gatwick Airport (EGKK)

Arrival

Time 2026-04-23 09:26
Airport Edinburgh Airport (EGPH)
Time Latitude Longitude Altitude Speed Heading
2026-04-23 07:55 51.15820 -0.17911 214 ft 0 kts 81°
2026-04-23 08:08 51.15818 -0.17931 214 ft 2 kts 81°
2026-04-23 08:08 51.15815 -0.17959 214 ft 3 kts 85°
2026-04-23 08:08 51.15817 -0.17991 214 ft 3 kts 105°
2026-04-23 08:09 51.15826 -0.18021 214 ft 3 kts 126°
2026-04-23 08:09 51.15840 -0.18043 214 ft 3 kts 145°
2026-04-23 08:09 51.15858 -0.18058 214 ft 1 kts 160°
2026-04-23 08:10 51.15857 -0.18058 214 ft 0 kts 160°
2026-04-23 08:11 51.15846 -0.18052 214 ft 5 kts 167°
2026-04-23 08:11 51.15812 -0.18048 214 ft 5 kts 177°
2026-04-23 08:11 51.15773 -0.18045 214 ft 7 kts 175°
2026-04-23 08:11 51.15712 -0.18039 214 ft 9 kts 195°
2026-04-23 08:12 51.15682 -0.18098 214 ft 5 kts 251°
2026-04-23 08:12 51.15675 -0.18142 214 ft 4 kts 257°
2026-04-23 08:12 51.15664 -0.18218 214 ft 6 kts 256°
2026-04-23 08:12 51.15656 -0.18267 214 ft 4 kts 256°
2026-04-23 08:13 51.15644 -0.18352 214 ft 12 kts 257°
2026-04-23 08:13 51.15631 -0.18439 214 ft 6 kts 257°
2026-04-23 08:13 51.15624 -0.18485 214 ft 3 kts 257°
2026-04-23 08:13 51.15618 -0.18527 214 ft 0 kts 257°
2026-04-23 08:15 51.15618 -0.18528 214 ft 0 kts 257°
2026-04-23 08:16 51.15613 -0.18564 214 ft 10 kts 257°
2026-04-23 08:16 51.15600 -0.18669 214 ft 8 kts 259°
2026-04-23 08:16 51.15590 -0.18749 214 ft 8 kts 255°
2026-04-23 08:16 51.15531 -0.18815 214 ft 14 kts 178°
2026-04-23 08:17 51.15425 -0.18783 214 ft 14 kts 166°
2026-04-23 08:17 51.15331 -0.18750 214 ft 14 kts 168°
2026-04-23 08:17 51.15241 -0.18721 214 ft 13 kts 168°
2026-04-23 08:17 51.15168 -0.18699 214 ft 9 kts 176°
2026-04-23 08:18 51.15127 -0.18748 214 ft 8 kts 254°
2026-04-23 08:18 51.15113 -0.18835 214 ft 11 kts 256°
2026-04-23 08:18 51.15088 -0.19017 214 ft 20 kts 258°
2026-04-23 08:18 51.15059 -0.19221 214 ft 17 kts 257°
2026-04-23 08:19 51.15036 -0.19387 214 ft 14 kts 258°
2026-04-23 08:19 51.15019 -0.19515 214 ft 10 kts 258°
2026-04-23 08:19 51.15006 -0.19611 214 ft 9 kts 258°
2026-04-23 08:19 51.14993 -0.19711 214 ft 10 kts 258°
2026-04-23 08:20 51.14975 -0.19839 214 ft 13 kts 257°
2026-04-23 08:20 51.14954 -0.19998 214 ft 16 kts 258°
2026-04-23 08:20 51.14926 -0.20187 214 ft 19 kts 254°
2026-04-23 08:20 51.14898 -0.20407 214 ft 22 kts 257°
2026-04-23 08:21 51.14868 -0.20622 214 ft 18 kts 257°
2026-04-23 08:21 51.14841 -0.20804 214 ft 15 kts 257°
2026-04-23 08:21 51.14820 -0.20954 214 ft 13 kts 257°
2026-04-23 08:21 51.14801 -0.21088 214 ft 12 kts 257°
2026-04-23 08:22 51.14780 -0.21206 214 ft 10 kts 254°
2026-04-23 08:22 51.14751 -0.21302 214 ft 9 kts 226°
2026-04-23 08:22 51.14696 -0.21341 214 ft 8 kts 183°
2026-04-23 08:22 51.14631 -0.21327 214 ft 12 kts 167°
2026-04-23 08:23 51.14554 -0.21285 214 ft 13 kts 141°
2026-04-23 08:23 51.14533 -0.21095 214 ft 32 kts 78°
2026-04-23 08:23 51.14633 -0.20401 215 ft 99 kts 78°
2026-04-23 08:23 51.14831 -0.18981 222 ft 162 kts 76°
2026-04-23 08:24 51.15095 -0.17098 628 ft 176 kts 77°
2026-04-23 08:24 51.15347 -0.15192 1117 ft 175 kts 77°
2026-04-23 08:24 51.15636 -0.13308 1651 ft 177 kts 68°
2026-04-23 08:24 51.16468 -0.11902 2198 ft 179 kts 34°
2026-04-23 08:25 51.17672 -0.11342 2795 ft 183 kts 20°
2026-04-23 08:25 51.18961 -0.11154 3381 ft 191 kts 11°
2026-04-23 08:25 51.20297 -0.11052 4019 ft 194 kts 11°
2026-04-23 08:25 51.21661 -0.10861 4618 ft 201 kts 13°
2026-04-23 08:26 51.23103 -0.10553 5002 ft 219 kts 14°
2026-04-23 08:26 51.24681 -0.10240 5024 ft 237 kts 11°
2026-04-23 08:26 51.26365 -0.10013 5036 ft 247 kts 10°
2026-04-23 08:26 51.28091 -0.09740 5039 ft 251 kts 12°
2026-04-23 08:27 51.29809 -0.09228 5037 ft 250 kts 19°
2026-04-23 08:27 51.31514 -0.08409 5048 ft 260 kts 24°
2026-04-23 08:27 51.32640 -0.07738 5054 ft 263 kts 26°
2026-04-23 08:27 51.34337 -0.06606 5148 ft 264 kts 28°
2026-04-23 08:28 51.36023 -0.05414 5552 ft 266 kts 29°
2026-04-23 08:28 51.38275 -0.03808 6157 ft 269 kts 28°
2026-04-23 08:28 51.39435 -0.02977 6547 ft 271 kts 28°
2026-04-23 08:28 51.41167 -0.01736 7104 ft 274 kts 28°
2026-04-23 08:29 51.42889 -0.00501 7661 ft 276 kts 28°
2026-04-23 08:29 51.44670 0.00778 8229 ft 278 kts 27°
2026-04-23 08:29 51.46426 0.02041 8483 ft 280 kts 27°
2026-04-23 08:29 51.48200 0.03316 8507 ft 279 kts 27°
2026-04-23 08:30 51.49977 0.04597 8524 ft 280 kts 27°
2026-04-23 08:30 51.51758 0.05881 8522 ft 280 kts 27°
2026-04-23 08:30 51.53538 0.07165 8524 ft 280 kts 27°
2026-04-23 08:30 51.55318 0.08450 8518 ft 280 kts 27°
2026-04-23 08:31 51.57099 0.09737 8525 ft 280 kts 27°
2026-04-23 08:31 51.58874 0.11020 8818 ft 279 kts 27°
2026-04-23 08:31 51.60659 0.12313 9393 ft 283 kts 27°
2026-04-23 08:31 51.62571 0.13228 9889 ft 292 kts
2026-04-23 08:32 51.64571 0.12770 10453 ft 300 kts 342°
2026-04-23 08:32 51.66329 0.10936 11050 ft 305 kts 316°
2026-04-23 08:32 51.67627 0.08219 11691 ft 310 kts 301°
2026-04-23 08:32 51.68726 0.05172 12212 ft 320 kts 299°
2026-04-23 08:33 51.69898 0.02046 12699 ft 332 kts 301°
2026-04-23 08:33 51.71168 -0.01161 13195 ft 345 kts 302°
2026-04-23 08:33 51.72497 -0.04477 13702 ft 359 kts 302°
2026-04-23 08:33 51.73880 -0.07935 14224 ft 372 kts 303°
2026-04-23 08:34 51.75579 -0.11176 14664 ft 383 kts 319°
2026-04-23 08:34 51.77813 -0.13570 15207 ft 390 kts 331°
2026-04-23 08:34 51.80199 -0.15686 15701 ft 392 kts 331°
2026-04-23 08:34 51.82568 -0.17892 16252 ft 393 kts 330°
2026-04-23 08:35 51.84928 -0.20141 16773 ft 395 kts 330°
2026-04-23 08:35 51.87299 -0.22404 17287 ft 396 kts 330°
2026-04-23 08:35 51.89651 -0.24652 17782 ft 398 kts 330°
2026-04-23 08:35 51.92035 -0.26932 18283 ft 399 kts 330°
2026-04-23 08:36 51.94434 -0.29230 18784 ft 401 kts 330°
2026-04-23 08:36 51.96850 -0.31547 19285 ft 404 kts 330°
2026-04-23 08:36 51.99278 -0.33879 19785 ft 406 kts 330°
2026-04-23 08:36 52.01720 -0.36228 20282 ft 409 kts 330°
2026-04-23 08:37 52.04180 -0.38595 20786 ft 413 kts 330°
2026-04-23 08:37 52.06659 -0.40985 21284 ft 415 kts 330°
2026-04-23 08:37 52.09147 -0.43386 21781 ft 417 kts 330°
2026-04-23 08:37 52.11647 -0.45803 22279 ft 420 kts 329°
2026-04-23 08:38 52.14163 -0.48236 22777 ft 422 kts 329°
2026-04-23 08:38 52.16691 -0.50687 23269 ft 424 kts 329°
2026-04-23 08:38 52.19239 -0.53158 23766 ft 426 kts 329°
2026-04-23 08:38 52.21790 -0.55638 24257 ft 428 kts 329°
2026-04-23 08:39 52.24351 -0.58130 24749 ft 429 kts 329°
2026-04-23 08:39 52.26912 -0.60626 25235 ft 429 kts 329°
2026-04-23 08:39 52.29476 -0.63127 25724 ft 429 kts 329°
2026-04-23 08:39 52.32007 -0.65600 26202 ft 428 kts 329°
2026-04-23 08:40 52.34559 -0.68097 26665 ft 428 kts 329°
2026-04-23 08:40 52.37119 -0.70604 27036 ft 429 kts 329°
2026-04-23 08:40 52.39686 -0.73123 27419 ft 430 kts 329°
2026-04-23 08:40 52.42252 -0.75644 27807 ft 430 kts 329°
2026-04-23 08:41 52.44820 -0.78170 28193 ft 430 kts 329°
2026-04-23 08:41 52.47385 -0.80696 28570 ft 430 kts 329°
2026-04-23 08:41 52.49946 -0.83223 28946 ft 429 kts 329°
2026-04-23 08:41 52.52510 -0.85755 29331 ft 428 kts 329°
2026-04-23 08:42 52.55058 -0.88276 29706 ft 427 kts 329°
2026-04-23 08:42 52.57604 -0.90798 30089 ft 426 kts 329°
2026-04-23 08:42 52.60143 -0.93316 30464 ft 424 kts 328°
2026-04-23 08:42 52.62639 -0.95795 30837 ft 423 kts 328°
2026-04-23 08:43 52.65152 -0.98295 31210 ft 421 kts 328°
2026-04-23 08:43 52.67665 -1.00797 31480 ft 422 kts 328°
2026-04-23 08:43 52.70174 -1.03298 31705 ft 420 kts 328°
2026-04-23 08:43 52.72673 -1.05794 31940 ft 420 kts 328°
2026-04-23 08:44 52.75180 -1.08301 32177 ft 419 kts 328°
2026-04-23 08:44 52.77666 -1.10791 32405 ft 418 kts 328°
2026-04-23 08:44 52.80156 -1.13287 32641 ft 417 kts 328°
2026-04-23 08:44 52.82636 -1.15777 32874 ft 416 kts 328°
2026-04-23 08:45 52.85078 -1.18232 33104 ft 415 kts 328°
2026-04-23 08:45 52.87547 -1.20717 33340 ft 415 kts 328°
2026-04-23 08:45 52.90011 -1.23201 33568 ft 413 kts 328°
2026-04-23 08:45 52.92469 -1.25683 33802 ft 413 kts 328°
2026-04-23 08:46 52.94928 -1.28169 34034 ft 413 kts 328°
2026-04-23 08:46 52.97375 -1.30646 34266 ft 412 kts 328°
2026-04-23 08:46 52.99833 -1.33136 34449 ft 413 kts 328°
2026-04-23 08:46 53.02287 -1.35627 34636 ft 413 kts 328°
2026-04-23 08:47 53.04739 -1.38119 34818 ft 413 kts 328°
2026-04-23 08:47 53.07167 -1.40590 35003 ft 413 kts 328°
2026-04-23 08:47 53.09625 -1.43094 35187 ft 414 kts 328°
2026-04-23 08:47 53.12089 -1.45609 35374 ft 415 kts 328°
2026-04-23 08:48 53.14556 -1.48129 35557 ft 415 kts 328°
2026-04-23 08:48 53.17025 -1.50657 35748 ft 416 kts 328°
2026-04-23 08:48 53.19462 -1.53153 35932 ft 416 kts 328°
2026-04-23 08:48 53.21933 -1.55689 36118 ft 417 kts 328°
2026-04-23 08:49 53.24405 -1.58228 36309 ft 417 kts 328°
2026-04-23 08:49 53.26877 -1.60772 36469 ft 418 kts 328°
2026-04-23 08:49 53.31829 -1.65877 36475 ft 417 kts 328°
2026-04-23 08:50 53.36775 -1.70990 36475 ft 418 kts 328°
2026-04-23 08:50 53.41728 -1.76125 36488 ft 418 kts 328°
2026-04-23 08:51 53.46650 -1.81242 36510 ft 419 kts 328°
2026-04-23 08:51 53.51616 -1.86412 36522 ft 419 kts 328°
2026-04-23 08:52 53.56547 -1.91560 36535 ft 419 kts 328°
2026-04-23 08:52 53.61504 -1.96755 36544 ft 419 kts 328°
2026-04-23 08:53 53.66477 -2.01987 36554 ft 420 kts 328°
2026-04-23 08:53 53.71442 -2.07224 36559 ft 420 kts 328°
2026-04-23 08:54 53.76563 -2.11828 36570 ft 420 kts 337°
2026-04-23 08:54 53.81999 -2.15524 36570 ft 420 kts 338°
2026-04-23 08:55 53.87431 -2.19231 36572 ft 420 kts 338°
2026-04-23 08:55 53.92823 -2.22924 36598 ft 421 kts 338°
2026-04-23 08:56 53.98253 -2.26654 36598 ft 420 kts 338°
2026-04-23 08:56 54.03679 -2.30394 36573 ft 421 kts 338°
2026-04-23 08:57 54.09119 -2.34159 36578 ft 421 kts 337°
2026-04-23 08:57 54.14515 -2.37904 36590 ft 421 kts 337°
2026-04-23 08:58 54.19950 -2.41679 36589 ft 421 kts 337°
2026-04-23 08:58 54.25398 -2.45471 36590 ft 423 kts 337°
2026-04-23 08:59 54.30815 -2.49253 36588 ft 423 kts 337°
2026-04-23 08:59 54.36276 -2.53076 36589 ft 423 kts 337°
2026-04-23 09:00 54.41746 -2.56916 36586 ft 424 kts 337°
2026-04-23 09:00 54.47186 -2.60746 36563 ft 425 kts 337°
2026-04-23 09:01 54.49926 -2.62679 36144 ft 425 kts 337°
2026-04-23 09:01 54.52663 -2.64616 35682 ft 424 kts 336°
2026-04-23 09:01 54.55385 -2.66544 35231 ft 423 kts 336°
2026-04-23 09:01 54.58104 -2.68471 34774 ft 422 kts 336°
2026-04-23 09:02 54.60821 -2.70401 34320 ft 421 kts 336°
2026-04-23 09:02 54.63523 -2.72325 33868 ft 420 kts 336°
2026-04-23 09:02 54.66229 -2.74253 33420 ft 422 kts 336°
2026-04-23 09:02 54.68916 -2.76169 32969 ft 423 kts 336°
2026-04-23 09:03 54.71650 -2.78122 32469 ft 425 kts 336°
2026-04-23 09:03 54.74383 -2.80078 31958 ft 425 kts 336°
2026-04-23 09:03 54.77123 -2.82041 31449 ft 424 kts 336°
2026-04-23 09:03 54.79828 -2.83982 30871 ft 417 kts 336°
2026-04-23 09:04 54.82499 -2.85900 30279 ft 414 kts 336°
2026-04-23 09:04 54.85152 -2.87811 29692 ft 412 kts 336°
2026-04-23 09:04 54.87798 -2.89717 29097 ft 409 kts 336°
2026-04-23 09:04 54.90394 -2.91590 28510 ft 407 kts 336°
2026-04-23 09:05 54.93008 -2.93480 27914 ft 405 kts 336°
2026-04-23 09:05 54.95603 -2.95359 27316 ft 402 kts 336°
2026-04-23 09:05 54.98182 -2.97228 26718 ft 400 kts 336°
2026-04-23 09:05 55.00752 -2.99092 26116 ft 398 kts 336°
2026-04-23 09:06 55.03299 -3.00944 25515 ft 396 kts 336°
2026-04-23 09:06 55.05789 -3.02757 24905 ft 387 kts 336°
2026-04-23 09:06 55.08249 -3.04549 24282 ft 377 kts 336°
2026-04-23 09:06 55.10670 -3.06316 23671 ft 373 kts 336°
2026-04-23 09:07 55.13044 -3.08050 23047 ft 365 kts 336°
2026-04-23 09:07 55.15369 -3.09752 22428 ft 360 kts 336°
2026-04-23 09:07 55.17648 -3.11421 21828 ft 358 kts 336°
2026-04-23 09:07 55.19946 -3.13106 21213 ft 356 kts 336°
2026-04-23 09:08 55.22231 -3.14785 20595 ft 354 kts 336°
2026-04-23 09:08 55.24500 -3.16453 19976 ft 352 kts 336°
2026-04-23 09:08 55.26755 -3.18113 19354 ft 350 kts 336°
2026-04-23 09:08 55.28973 -3.19699 18724 ft 346 kts 340°
2026-04-23 09:09 55.31322 -3.20400 18070 ft 339 kts 359°
2026-04-23 09:09 55.33643 -3.20062 17472 ft 331 kts
2026-04-23 09:09 55.35930 -3.19543 16841 ft 330 kts
2026-04-23 09:09 55.38205 -3.19134 16213 ft 327 kts
2026-04-23 09:10 55.40464 -3.18778 15582 ft 324 kts
2026-04-23 09:10 55.44922 -3.18079 14315 ft 317 kts
2026-04-23 09:10 55.47116 -3.17735 13683 ft 314 kts
2026-04-23 09:11 55.49263 -3.17398 13062 ft 312 kts
2026-04-23 09:11 55.51416 -3.17060 12431 ft 309 kts
2026-04-23 09:11 55.53545 -3.16726 11817 ft 305 kts
2026-04-23 09:11 55.55651 -3.16394 11273 ft 301 kts
2026-04-23 09:12 55.57713 -3.16068 10727 ft 299 kts
2026-04-23 09:12 55.59786 -3.15741 10180 ft 298 kts
2026-04-23 09:12 55.61847 -3.15416 9630 ft 296 kts
2026-04-23 09:12 55.63893 -3.15092 9086 ft 293 kts
2026-04-23 09:13 55.65913 -3.14773 8537 ft 290 kts
2026-04-23 09:13 55.67915 -3.14457 8000 ft 287 kts
2026-04-23 09:13 55.69825 -3.14790 7799 ft 270 kts 342°
2026-04-23 09:13 55.71339 -3.16459 7776 ft 249 kts 315°
2026-04-23 09:14 55.72344 -3.18918 7552 ft 244 kts 297°
2026-04-23 09:14 55.73013 -3.21661 7256 ft 240 kts 287°
2026-04-23 09:14 55.73328 -3.23537 7056 ft 239 kts 282°
2026-04-23 09:14 55.73747 -3.26397 6723 ft 238 kts 282°
2026-04-23 09:15 55.74173 -3.29222 6401 ft 235 kts 282°
2026-04-23 09:15 55.74603 -3.32002 6122 ft 228 kts 282°
2026-04-23 09:15 55.75015 -3.34647 5810 ft 223 kts 282°
2026-04-23 09:15 55.75398 -3.37283 5459 ft 218 kts 278°
2026-04-23 09:16 55.75515 -3.39924 5140 ft 211 kts 269°
2026-04-23 09:16 55.75546 -3.42503 4810 ft 207 kts 268°
2026-04-23 09:16 55.75569 -3.45052 4477 ft 205 kts 268°
2026-04-23 09:16 55.75583 -3.47563 4155 ft 202 kts 268°
2026-04-23 09:17 55.75590 -3.50045 3834 ft 200 kts 269°
2026-04-23 09:17 55.75576 -3.52493 3513 ft 195 kts 268°
2026-04-23 09:17 55.75561 -3.54870 3161 ft 191 kts 268°
2026-04-23 09:17 55.75536 -3.57194 3040 ft 191 kts 268°
2026-04-23 09:18 55.75506 -3.59564 3033 ft 192 kts 268°
2026-04-23 09:18 55.75478 -3.61937 3017 ft 192 kts 269°
2026-04-23 09:18 55.75596 -3.64298 3009 ft 192 kts 278°
2026-04-23 09:18 55.75901 -3.66610 2998 ft 193 kts 290°
2026-04-23 09:19 55.76746 -3.68401 3007 ft 190 kts 324°
2026-04-23 09:19 55.77889 -3.69567 3021 ft 189 kts 334°
2026-04-23 09:19 55.79029 -3.70628 3002 ft 183 kts 335°
2026-04-23 09:19 55.80234 -3.71117 2989 ft 175 kts
2026-04-23 09:20 55.81447 -3.70992 3010 ft 174 kts
2026-04-23 09:20 55.82645 -3.70744 2999 ft 169 kts 13°
2026-04-23 09:20 55.83676 -3.69889 2971 ft 161 kts 41°
2026-04-23 09:20 55.84378 -3.68399 3014 ft 159 kts 55°
2026-04-23 09:21 55.84982 -3.66755 3008 ft 158 kts 59°
2026-04-23 09:21 55.85550 -3.65096 3055 ft 156 kts 60°
2026-04-23 09:21 55.86110 -3.63432 3036 ft 157 kts 60°
2026-04-23 09:21 55.86671 -3.61764 3011 ft 157 kts 60°
2026-04-23 09:22 55.87226 -3.60118 2827 ft 157 kts 60°
2026-04-23 09:22 55.87787 -3.58463 2599 ft 155 kts 60°
2026-04-23 09:22 55.88343 -3.56828 2419 ft 155 kts 60°
2026-04-23 09:22 55.88895 -3.55207 2244 ft 150 kts 60°
2026-04-23 09:23 55.89435 -3.53623 2046 ft 148 kts 60°
2026-04-23 09:23 55.89958 -3.52089 1871 ft 140 kts 58°
2026-04-23 09:23 55.90467 -3.50593 1768 ft 142 kts 58°
2026-04-23 09:23 55.90979 -3.49084 1532 ft 142 kts 58°
2026-04-23 09:24 55.91500 -3.47552 1344 ft 146 kts 58°
2026-04-23 09:24 55.92017 -3.46032 1114 ft 141 kts 58°
2026-04-23 09:24 55.92520 -3.44549 903 ft 139 kts 58°
2026-04-23 09:24 55.93017 -3.43088 754 ft 140 kts 58°
2026-04-23 09:25 55.93527 -3.41583 565 ft 140 kts 58°
2026-04-23 09:25 55.94022 -3.40125 380 ft 138 kts 58°
2026-04-23 09:25 55.94521 -3.38656 197 ft 138 kts 58°
2026-04-23 09:25 55.94981 -3.37295 148 ft 100 kts 59°
2026-04-23 09:26 55.95170 -3.36739 147 ft 25 kts 57°
2026-04-23 09:26 55.95225 -3.36579 147 ft 9 kts 56°
2026-04-23 09:26 55.95264 -3.36444 147 ft 10 kts 98°
2026-04-23 09:26 55.95231 -3.36373 147 ft 6 kts 142°
2026-04-23 09:27 55.95203 -3.36341 147 ft 8 kts 148°
2026-04-23 09:27 55.95161 -3.36307 147 ft 5 kts 171°
2026-04-23 09:27 55.95120 -3.36337 147 ft 8 kts 228°
2026-04-23 09:27 55.95088 -3.36418 147 ft 8 kts 239°
2026-04-23 09:28 55.95058 -3.36516 147 ft 10 kts 240°
2026-04-23 09:28 55.95021 -3.36622 147 ft 11 kts 237°
2026-04-23 09:28 55.94989 -3.36717 147 ft 7 kts 240°
2026-04-23 09:28 55.94964 -3.36794 147 ft 8 kts 236°
2026-04-23 09:29 55.94917 -3.36816 147 ft 8 kts 162°
2026-04-23 09:29 55.94872 -3.36773 147 ft 5 kts 150°
2026-04-23 09:29 55.94833 -3.36748 147 ft 6 kts 170°
2026-04-23 09:29 55.94784 -3.36742 147 ft 8 kts 178°
2026-04-23 09:30 55.94738 -3.36740 147 ft 5 kts 179°
2026-04-23 09:30 55.94704 -3.36739 147 ft 2 kts 179°
2026-04-23 09:30 55.94690 -3.36739 147 ft 3 kts 179°
2026-04-23 09:30 55.94674 -3.36724 147 ft 3 kts 128°
2026-04-23 09:31 55.94669 -3.36687 147 ft 4 kts 98°
2026-04-23 09:31 55.94667 -3.36644 147 ft 3 kts 95°
2026-04-23 09:31 55.94666 -3.36632 147 ft 0 kts 95°